Aroma Park, IL

3:55 PM CDT on September 29, 2016 (GMT -0500)
Greater Kankakee

Weather History for KIKK - May, 2013

Change the Weather History Date:

Tuesday, May 21, 2013

  Actual Average Record
Temperature  
Mean Temperature 71 °F -  
Max Temperature 80 °F 76 °F 90 °F (1975)
Min Temperature 62 °F 51 °F 28 °F (2002)
Cooling Degree Days 6    
Growing Degree Days 21 (Base 50)    
Moisture  
Dew Point 64 °F    
Average Humidity 79    
Maximum Humidity 96    
Minimum Humidity 60    
Precipitation  
Precipitation 0.00 in - - ()
Sea Level Pressure  
Sea Level Pressure 29.74 in    
Wind  
Wind Speed 12 mph (SSW)    
Max Wind Speed 22 mph    
Max Gust Speed 30 mph    
Visibility 10 miles    
Events Rain , Thunderstorm    
Averages and records for this station are not official NWS values.
T = Trace of Precipitation, MM = Missing Value Source: NWS Daily Summary

Daily Weather History Graph

Daily Weather History Graph

Search for Another Location

Airport or City:

Trip Planner

Search our weather history database for the weather conditions in past years. The results will help you decide how hot, cold, wet, or windy it might be!

Date:

Astronomy

May. 21, 2013 Rise Set
Actual Time 5:27 AM CDT 8:08 PM CDT
Civil Twilight 4:56 AM CDT 8:40 PM CDT
Nautical Twilight 4:16 AM CDT 9:20 PM CDT
Astronomical Twilight 3:30 AM CDT 10:06 PM CDT
Moon 4:20 PM CDT (5/21) 2:57 AM CDT (5/21)
Length of Visible Light 15h 44m
Length of Day
14h 40m
Waxing Gibbous, 84% of the Moon is Illuminated
May 21
Waxing Gibbous
May 24
Full
May 31
Last Quarter
Jun 8
New
Jun 16
First Quarter

Hourly Weather History & Observations

Time (CDT) Temp. Heat Index Dew Point Humidity Pressure Visibility Wind Dir Wind Speed Gust Speed Precip Events Conditions
12:15 AM 63.9 °F - 61.7 °F 93% 29.80 in 5.0 mi West 10.4 mph 16.1 mph N/A Rain , Thunderstorm Thunderstorms and Rain
12:35 AM 63.7 °F - 61.9 °F 94% 29.79 in 7.0 mi WNW 6.9 mph - N/A Rain , Thunderstorm Thunderstorms and Rain
12:55 AM 64.4 °F - 62.6 °F 94% 29.78 in 7.0 mi West 9.2 mph - N/A Rain , Thunderstorm Heavy Thunderstorms and Rain
1:15 AM 64.0 °F - 62.1 °F 93% 29.79 in 7.0 mi West 8.1 mph - N/A Rain , Thunderstorm Heavy Thunderstorms and Rain
1:35 AM 63.5 °F - 62.4 °F 96% 29.80 in 7.0 mi SW 6.9 mph - N/A Rain , Thunderstorm Thunderstorms and Rain
1:55 AM 63.7 °F - 62.6 °F 96% 29.78 in 10.0 mi SSW 10.4 mph 16.1 mph N/A Rain Light Rain
2:15 AM 63.9 °F - 62.6 °F 96% 29.74 in 10.0 mi South 9.2 mph 16.1 mph N/A Rain Light Rain
2:35 AM 63.9 °F - 61.5 °F 92% 29.70 in 10.0 mi SSE 8.1 mph - N/A Rain Light Rain
2:55 AM 63.5 °F - 60.8 °F 91% 29.72 in 10.0 mi South 10.4 mph - N/A   Mostly Cloudy
3:15 AM 63.5 °F - 60.4 °F 90% 29.73 in 10.0 mi South 12.7 mph 17.3 mph N/A   Scattered Clouds
3:35 AM 63.3 °F - 60.4 °F 90% 29.74 in 10.0 mi South 10.4 mph - N/A   Clear
3:55 AM 63.0 °F - 60.4 °F 91% 29.74 in 10.0 mi South 10.4 mph - N/A   Clear
4:15 AM 62.4 °F - 60.1 °F 92% 29.74 in 10.0 mi South 8.1 mph - N/A   Clear
4:35 AM 62.4 °F - 60.1 °F 92% 29.74 in 10.0 mi South 6.9 mph - N/A   Clear
4:55 AM 62.1 °F - 60.1 °F 93% 29.75 in 10.0 mi South 4.6 mph - N/A   Clear
5:15 AM 62.4 °F - 59.9 °F 91% 29.75 in 10.0 mi South 9.2 mph - N/A   Clear
5:35 AM 63.5 °F - 59.5 °F 87% 29.75 in 10.0 mi SSW 13.8 mph 18.4 mph N/A   Clear
5:55 AM 63.9 °F - 59.9 °F 87% 29.75 in 10.0 mi SSW 12.7 mph 19.6 mph N/A   Clear
6:15 AM 63.9 °F - 60.1 °F 87% 29.75 in 10.0 mi SSW 11.5 mph - N/A   Clear
6:35 AM 64.0 °F - 60.8 °F 89% 29.74 in 10.0 mi SSW 9.2 mph - N/A   Clear
6:55 AM 64.6 °F - 60.8 °F 88% 29.74 in 10.0 mi South 8.1 mph - N/A   Clear
7:15 AM 66.9 °F - 61.3 °F 82% 29.74 in 10.0 mi South 10.4 mph 16.1 mph N/A   Clear
7:35 AM 68.4 °F - 62.2 °F 81% 29.75 in 10.0 mi South 12.7 mph 17.3 mph N/A   Clear
7:55 AM 68.0 °F - 61.9 °F 81% 29.75 in 10.0 mi South 15.0 mph 21.9 mph N/A   Clear
8:15 AM 68.0 °F - 61.7 °F 80% 29.76 in 10.0 mi South 12.7 mph - N/A   Clear
8:35 AM 68.7 °F - 62.6 °F 81% 29.78 in 10.0 mi South 19.6 mph 26.5 mph N/A   Scattered Clouds
8:55 AM 68.9 °F - 63.1 °F 82% 29.78 in 10.0 mi South 17.3 mph 23.0 mph N/A   Mostly Cloudy
9:15 AM 68.7 °F - 63.1 °F 82% 29.78 in 10.0 mi South 17.3 mph 21.9 mph N/A   Overcast
9:35 AM 69.6 °F - 63.7 °F 81% 29.77 in 10.0 mi South 17.3 mph 21.9 mph N/A   Overcast
9:55 AM 71.1 °F - 63.5 °F 77% 29.76 in 10.0 mi SSW 21.9 mph 27.6 mph N/A   Overcast
10:15 AM 71.6 °F - 64.0 °F 77% 29.76 in 10.0 mi SSW 18.4 mph 26.5 mph N/A   Overcast
10:35 AM 71.1 °F - 64.4 °F 79% 29.76 in 10.0 mi South 19.6 mph 27.6 mph N/A   Overcast
10:55 AM 72.0 °F - 64.6 °F 77% 29.76 in 10.0 mi South 16.1 mph 26.5 mph N/A   Overcast
11:15 AM 71.8 °F - 64.2 °F 77% 29.77 in 10.0 mi SSW 18.4 mph 25.3 mph N/A   Overcast
11:35 AM 72.1 °F - 64.8 °F 78% 29.76 in 10.0 mi SSW 21.9 mph 29.9 mph N/A   Overcast
11:55 AM 73.2 °F - 64.6 °F 74% 29.76 in 10.0 mi SSW 19.6 mph 28.8 mph N/A   Overcast
12:15 PM 73.4 °F - 65.1 °F 75% 29.76 in 10.0 mi SSW 19.6 mph 26.5 mph N/A   Overcast
12:35 PM 74.8 °F - 66.2 °F 74% 29.76 in 10.0 mi SW 17.3 mph 24.2 mph N/A   Overcast
12:55 PM 76.3 °F - 67.5 °F 74% 29.76 in 10.0 mi SSW 18.4 mph 25.3 mph N/A   Overcast
1:15 PM 76.6 °F - 67.3 °F 73% 29.76 in 10.0 mi SSW 19.6 mph 24.2 mph N/A   Mostly Cloudy
1:35 PM 77.0 °F - 66.4 °F 70% 29.76 in 10.0 mi SW 19.6 mph 25.3 mph N/A   Mostly Cloudy
1:55 PM 77.5 °F - 67.1 °F 70% 29.76 in 10.0 mi SSW 15.0 mph 26.5 mph N/A   Mostly Cloudy
2:15 PM 77.5 °F - 66.4 °F 68% 29.75 in 10.0 mi SSW 18.4 mph 23.0 mph N/A   Scattered Clouds
2:35 PM 79.0 °F - 66.4 °F 65% 29.74 in 10.0 mi SSW 17.3 mph 25.3 mph N/A   Scattered Clouds
2:55 PM 79.9 °F - 66.6 °F 64% 29.74 in 10.0 mi SW 17.3 mph 24.2 mph N/A   Scattered Clouds
3:15 PM 79.7 °F - 66.4 °F 64% 29.74 in 10.0 mi SSW 18.4 mph 24.2 mph N/A   Scattered Clouds
3:35 PM 80.4 °F 82.3 °F 65.3 °F 60% 29.74 in 10.0 mi SSW 21.9 mph 28.8 mph N/A   Mostly Cloudy
3:55 PM 80.4 °F 82.3 °F 65.5 °F 60% 29.73 in 10.0 mi SSW 20.7 mph 28.8 mph N/A   Scattered Clouds
4:15 PM 80.1 °F 82.0 °F 65.5 °F 61% 29.73 in 10.0 mi SSW 16.1 mph 26.5 mph N/A   Scattered Clouds
4:35 PM 80.4 °F 82.3 °F 65.5 °F 60% 29.73 in 10.0 mi SW 19.6 mph 24.2 mph N/A   Scattered Clouds
4:55 PM 80.1 °F 82.1 °F 66.0 °F 62% 29.72 in 10.0 mi SSW 15.0 mph 20.7 mph N/A   Scattered Clouds
5:15 PM 79.9 °F - 65.8 °F 62% 29.72 in 10.0 mi SW 15.0 mph 23.0 mph N/A   Scattered Clouds
5:35 PM 79.7 °F - 66.0 °F 63% 29.71 in 10.0 mi SSW 16.1 mph 23.0 mph N/A   Scattered Clouds
5:55 PM 78.8 °F - 65.8 °F 64% 29.70 in 10.0 mi SW 17.3 mph - N/A   Scattered Clouds
6:15 PM 77.7 °F - 65.7 °F 66% 29.70 in 10.0 mi SSW 11.5 mph - N/A   Clear
6:35 PM 77.9 °F - 65.8 °F 66% 29.69 in 10.0 mi SSW 11.5 mph - N/A   Clear
6:55 PM 76.6 °F - 65.8 °F 69% 29.70 in 10.0 mi SSW 9.2 mph - N/A   Scattered Clouds
7:15 PM 76.1 °F - 65.5 °F 70% 29.69 in 10.0 mi SW 9.2 mph - N/A   Clear
7:35 PM 75.0 °F - 64.9 °F 71% 29.69 in 10.0 mi SSW 9.2 mph - N/A   Clear
7:55 PM 74.3 °F - 63.5 °F 69% 29.70 in 10.0 mi SSW 10.4 mph - N/A   Clear
8:15 PM 72.7 °F - 64.2 °F 75% 29.71 in 10.0 mi SSW 8.1 mph - N/A   Mostly Cloudy
8:35 PM 72.7 °F - 65.3 °F 78% 29.72 in 10.0 mi SSW 8.1 mph - N/A   Overcast
8:55 PM 72.5 °F - 65.5 °F 79% 29.73 in 10.0 mi SSW 10.4 mph - N/A   Mostly Cloudy
9:15 PM 72.9 °F - 64.9 °F 76% 29.73 in 10.0 mi SSW 11.5 mph - N/A   Scattered Clouds
9:35 PM 72.5 °F - 64.6 °F 76% 29.73 in 10.0 mi SSW 8.1 mph 17.3 mph N/A   Clear
9:55 PM 71.4 °F - 64.6 °F 79% 29.73 in 10.0 mi South 8.1 mph - N/A   Scattered Clouds
10:15 PM 70.5 °F - 64.8 °F 82% 29.72 in 10.0 mi South 6.9 mph - N/A   Scattered Clouds
10:35 PM 70.9 °F - 64.6 °F 80% 29.72 in 10.0 mi South 8.1 mph - N/A   Mostly Cloudy
10:55 PM 70.7 °F - 64.8 °F 81% 29.72 in 10.0 mi South 11.5 mph 16.1 mph N/A   Mostly Cloudy
11:15 PM 70.2 °F - 64.8 °F 83% 29.71 in 10.0 mi South 6.9 mph - N/A   Mostly Cloudy
11:35 PM 70.0 °F - 64.6 °F 83% 29.71 in 10.0 mi South 10.4 mph - N/A   Mostly Cloudy
11:55 PM 70.0 °F - 64.4 °F 82% 29.71 in 10.0 mi South 11.5 mph - N/A   Overcast